Regional Weather Roundup
Issued by NWS

Home | Current Version | Previous Version | Text Only | Print | Product List | Glossary Off
Versions: 1 2 3 4 5 6 7 8 9 10 11 12 13 14 15 16 17 18 19 20 21 22 23 24 25 26 27 28 29 30 31 32 33 34 35 36 37 38 39 40 41 42 43 44 45 46 47 48 49 50

000
ASUS43 KFSD 021202
RWRSD

WEATHER ROUNDUP FOR SOUTH DAKOTA
NATIONAL WEATHER SERVICE SIOUX FALLS SD
700 AM CDT THU JUL 02 2015

NOTE: "FAIR" INDICATES FEW OR NO CLOUDS BELOW 12,000 FEET WITH NO
SIGNIFICANT WEATHER AND/OR OBSTRUCTIONS TO VISIBILITY.


SDZ001>005-009-010-012>017-021300-
NORTHWEST AND NORTH CENTRAL SOUTH DAKOTA

CITY           SKY/WX    TMP DP  RH WIND       PRES   REMARKS
BUFFALO          N/A     61  59  93 NW9       30.00S
FAITH            N/A     64  61  90 N8        30.01R
MOBRIDGE       TSTM      65  63  93 W6        29.94R
$$

SDZ012>016-024>037-041>051-057-063-072>074-021300-
SOUTHWEST AND SOUTH CENTRAL SOUTH DAKOTA

CITY           SKY/WX    TMP DP  RH WIND       PRES   REMARKS
RAPID CTY ARPT CLEAR     64  61  90 N16       30.05R
PIERRE         TSTM      63  61  93 N14       29.96R FOG
CUSTER         PTCLDY    57  51  80 NW3       30.18R
ELLSWORTH AFB  CLEAR     64  62  93 NW10      30.05R
PHILIP         CLEAR     67  64  90 NW9       29.97R
PINE RIDGE     PTCLDY    60  57  89 W8        30.07R
WINNER         CLOUDY    70  66  87 SW7       29.92F FOG
$$

SDZ004>011-016>023-039-040-021300-
NORTHEAST SOUTH DAKOTA

CITY           SKY/WX    TMP DP  RH WIND       PRES   REMARKS
ABERDEEN       CLOUDY    63  57  81 S7        29.97S
WATERTOWN      PTSUNNY   59  54  83 SE8       30.00R
BROOKINGS      CLOUDY    57  54  88 SE7       30.03R
SISSETON         N/A     55  53  93 S5        29.99R
$$

SDZ017-020-022-023-036>040-048>070-021300-
SOUTHEAST SOUTH DAKOTA

CITY           SKY/WX    TMP DP  RH WIND       PRES   REMARKS
SIOUX FALLS    CLOUDY    58  53  84 E3        30.00S
HURON          LGT RAIN  59  57  93 SE12      29.95F
MITCHELL       CLOUDY    61  58  90 SE9       29.98R
YANKTON        CLOUDY    59  54  82 E8        29.96F
$$

ABBREVIATIONS USED IN REMARKS
   TC - TEMPERATURE IN CELSIUS
  WCI - WIND CHILL INDEX
   HX - HEAT INDEX
  VSB - VISIBILITY



USA.gov is the U.S. government's official web portal to all federal, state and local government web resources and services.